Weather in Emel'yanovo

Russia / Vologda Oblast     59°10′16″N   39°53′31″E
temp.,
°C
wind,
m/s
gust,
m/s
humid.,
%
clouds,
%
prec.,
mm/h
press.,
hPa
HPBL,
m
25 may, wed
wed2500:00−1nnw49979 0.0 1013207
03:00−2nnw369729 0.0 1014119
06:00+2nw489013 0.0 1013303
09:00+7nnw687053 0.0 1012909
12:00+8nnw576799 0.1 10121230
15:00+10nw5660100 0.3 10121463
18:00+9nw466583 0.1 1011819
21:00+5nw337896 0.3 101136
26 may, thu
thu2600:00+3wnw3485100 0.0 101054
03:00+1wnw34925 0.0 100955
06:00+4wnw36865 0.0 1008215
09:00+9wnw46656 0.0 10061023
12:00+11wnw455483 0.0 10051645
15:00+12nnw235185 0.0 10041282
18:00+12e225815 0.0 1003585
21:00+6ese35915 0.0 100383
27 may, fri
fri2700:00+4se339218 0.0 100145
03:00+3se3392100 0.0 100055
06:00+6se3784100 0.0 999213
09:00+11sse3472100 0.0 998632
12:00+14s2361100 0.1 9971266
15:00+12sw1274100 0.1 99742
18:00+12se3579100 0.1 997258
21:00+10ssw2287100 0.1 99750
28 may, sat
sat2800:00+9sw2292100 0.0 99721
03:00+7sse229598 0.0 99718
06:00+9sse2296100 0.8 996110
09:00+11s238897 2.0 996414
12:00+14se127281 2.7 994883
15:00+15wsw2368100 8.3 994987
18:00+13wsw468098 3.8 995380
21:00+9wsw61390100 5.3 997624
29 may, sun
sun2900:00+8sw61293100 1.5 998585
03:00+8sw61295100 5.5 1000561
06:00+7sw51194100 0.3 1002535
09:00+8sw6992100 0.4 1004552
12:00+11sw5786100 0.1 1006716
15:00+13sw687197 0.2 10081256
18:00+13sw687519 0.1 10101052
21:00+9ssw488892 0.1 1011139